2023/02/28 00:00:00,79.8, 0.5
2023/02/28 00:10:00,79.8, 0.7
2023/02/28 00:20:00,79.7, 0.5
2023/02/28 00:30:00,79.6, 0.5
2023/02/28 00:40:00,79.6, 0.4
2023/02/28 00:50:00,79.6, 0.2
2023/02/28 01:00:00,79.6, 0.0
2023/02/28 01:10:00,79.6, 1.1
2023/02/28 01:20:00,79.6, 0.7
2023/02/28 01:30:00,79.6,-0.1
2023/02/28 01:40:00,79.6, 0.8
2023/02/28 01:50:00,79.6, 0.4
2023/02/28 02:00:00,79.6, 0.0
2023/02/28 02:10:00,79.5, 0.2
2023/02/28 02:20:00,79.5,-0.5
2023/02/28 02:30:00,79.5, 0.0
2023/02/28 02:40:00,79.6, 0.3
2023/02/28 02:50:00,79.6,-0.1
2023/02/28 03:00:00,79.5,-0.1
2023/02/28 03:10:00,79.5,-0.2
2023/02/28 03:20:00,79.5, 0.0
2023/02/28 03:30:00,79.5, 0.0
2023/02/28 03:40:00,79.5, 0.2
2023/02/28 03:50:00,79.5, 0.2
2023/02/28 04:00:00,79.5, 1.4
2023/02/28 04:10:00,79.5, 0.3
2023/02/28 04:20:00,79.5, 0.1
2023/02/28 04:30:00,79.5, 0.0
2023/02/28 04:40:00,79.5, 1.1
2023/02/28 04:50:00,79.6, 0.2
2023/02/28 05:00:00,79.6, 0.6
2023/02/28 05:10:00,79.6, 0.2
2023/02/28 05:20:00,79.6,-0.1
2023/02/28 05:30:00,79.5, 0.1
2023/02/28 05:40:00,79.5,-0.3
2023/02/28 05:50:00,79.6,-0.4
2023/02/28 06:00:00,79.5,-0.5
2023/02/28 06:10:00,79.5,-0.8
2023/02/28 06:20:00,79.5,-0.7
2023/02/28 06:30:00,79.5,-0.5
2023/02/28 06:40:00,79.5,-0.8
2023/02/28 06:50:00,79.5,-0.5
2023/02/28 07:00:00,79.5,-0.1
2023/02/28 07:10:00,79.4,-0.3
2023/02/28 07:20:00,79.4, 0.4
2023/02/28 07:30:00,79.4, 0.2
2023/02/28 07:40:00,79.4, 0.0
2023/02/28 07:50:00,79.4, 1.3
2023/02/28 08:00:00,79.4, 2.1
2023/02/28 08:10:00,79.5, 2.5
2023/02/28 08:20:00,79.4, 2.7
2023/02/28 08:30:00,79.4, 2.9
2023/02/28 08:40:00,79.5, 3.0
2023/02/28 08:50:00,79.5, 4.2
2023/02/28 09:00:00,79.4, 5.8
2023/02/28 09:10:00,79.1, 7.5
2023/02/28 09:20:00,79.0, 9.6
2023/02/28 09:30:00,78.7,10.7
2023/02/28 09:40:00,78.4,10.7
2023/02/28 09:50:00,78.5,10.7
2023/02/28 10:00:00,78.4,11.2
2023/02/28 10:10:00,78.6,10.1
2023/02/28 10:20:00,78.3,10.3
2023/02/28 10:30:00,78.2,10.2
2023/02/28 10:40:00,77.6,10.8
2023/02/28 10:50:00,77.8,10.9
2023/02/28 11:00:00,77.6,10.9
2023/02/28 11:10:00,77.5,11.8
2023/02/28 11:20:00,77.4,12.0
2023/02/28 11:30:00,77.8,12.2
2023/02/28 11:40:00,77.5,12.8
2023/02/28 11:50:00,78.1,12.2
2023/02/28 12:00:00,78.2,12.9
2023/02/28 12:10:00,78.1,11.7
2023/02/28 12:20:00,78.0,12.2
2023/02/28 12:30:00,77.8,12.5
2023/02/28 12:40:00,77.4,14.2
2023/02/28 12:50:00,77.3,15.9
2023/02/28 13:00:00,76.7,15.8
2023/02/28 13:10:00,77.2,15.8
2023/02/28 13:20:00,77.3,15.8
2023/02/28 13:30:00,76.4,16.8
2023/02/28 13:40:00,76.0,15.9
2023/02/28 13:50:00,75.4,16.5
2023/02/28 14:00:00,75.1,16.8
2023/02/28 14:10:00,74.5,17.0
2023/02/28 14:20:00,74.1,16.6
2023/02/28 14:30:00,73.5,16.7
2023/02/28 14:40:00,74.1,17.0
2023/02/28 14:50:00,73.9,17.6
2023/02/28 15:00:00,73.5,16.1
2023/02/28 15:10:00,73.2,16.3
2023/02/28 15:20:00,73.2,17.1
2023/02/28 15:30:00,73.5,18.1
2023/02/28 15:40:00,73.8,19.1
2023/02/28 15:50:00,74.0,18.8
2023/02/28 16:00:00,73.8,19.7
2023/02/28 16:10:00,73.6,18.8
2023/02/28 16:20:00,73.8,17.9
2023/02/28 16:30:00,74.4,18.3
2023/02/28 16:40:00,74.8,16.8
2023/02/28 16:50:00,75.2,13.2
2023/02/28 17:00:00,75.5,11.7
2023/02/28 17:10:00,75.3,11.2
2023/02/28 17:20:00,75.4, 9.9
2023/02/28 17:30:00,75.5, 9.6
2023/02/28 17:40:00,75.6, 8.5
2023/02/28 17:50:00,75.6, 7.7
2023/02/28 18:00:00,75.8, 6.0
2023/02/28 18:10:00,75.5, 5.2
2023/02/28 18:20:00,75.3, 5.2
2023/02/28 18:30:00,75.2, 4.8
2023/02/28 18:40:00,75.2, 4.5
2023/02/28 18:50:00,75.3, 4.1
2023/02/28 19:00:00,75.3, 4.6
2023/02/28 19:10:00,75.2, 4.0
2023/02/28 19:20:00,75.2, 3.8
2023/02/28 19:30:00,75.1, 3.6
2023/02/28 19:40:00,75.1, 3.8
2023/02/28 19:50:00,75.1, 3.4
2023/02/28 20:00:00,75.0, 3.1
2023/02/28 20:10:00,75.0, 3.2
2023/02/28 20:20:00,75.0, 2.8
2023/02/28 20:30:00,75.0, 2.7
2023/02/28 20:40:00,75.0, 2.7
2023/02/28 20:50:00,75.0, 3.0
2023/02/28 21:00:00,75.0, 2.8
2023/02/28 21:10:00,75.0, 3.0
2023/02/28 21:20:00,75.0, 2.5
2023/02/28 21:30:00,74.9, 2.9
2023/02/28 21:40:00,74.9, 2.7
2023/02/28 21:50:00,74.9, 3.1
2023/02/28 22:00:00,74.9, 3.5
2023/02/28 22:10:00,74.9, 3.9
2023/02/28 22:20:00,75.0, 3.9
2023/02/28 22:30:00,74.9, 3.9
2023/02/28 22:40:00,74.9, 4.1
2023/02/28 22:50:00,74.9, 3.6
2023/02/28 23:00:00,74.8, 3.6
2023/02/28 23:10:00,74.9, 3.5
2023/02/28 23:20:00,74.9, 3.5
2023/02/28 23:30:00,74.9, 3.7
2023/02/28 23:40:00,74.9, 2.7
2023/02/28 23:50:00,74.9, 2.5
